Location: Moscow
(55.7500°N, 37.5830°E)
Time: 16:53:00
(UTC+03:00)

Transit 2A - Pass Details

Date: 01 December 2021
Orbit: 591 x 967 km, 66.7° (Epoch: 17 January)

Event Time Altitude Azimuth Distance (km) Brightness Sun altitude
Rises 08:37:18 0° 314° (NW) 3,627 - -0.6°
Exits shadow 08:37:31 - 314° (NW) 3,547 8.7 -0.6°
Reaches altitude 10° 08:39:52 10° 317° (NW) 2,701 8.2 -0.3°
Maximum altitude 08:46:16 73° 42° (NE) 1,012 6.7 0.4°
Drops below altitude 10° 08:52:35 10° 128° (SE) 2,667 11.1 1.0°
Sets 08:55:06 0° 130° (SE) 3,579 12.8 1.3°
